When you browse on this site, cookies collect data to enhance your experience and personalize the content and advertising you see.
Visit our Privacy Policy to learn more. By continuing to use the site, you agree to this use of cookies and data.
  • en Belgique
  • Liste des pays
  • À 7 jours
  • Température de l'eau
  • Carte satellitaire
  • Carte météo
  • Widgets météo
  • user-avatar
    Se connecter

    Météo par heure à Dunkerque

    Ce jour, 26 Juin, Mercredi

    Heure Température Précipitation Vent Pression Humidité
    00:00 +17°C° 0 mm 4 m/s 767 mmHg 89%
    01:00 +16°C° 0 mm 5 m/s 767 mmHg 91%
    02:00 +16°C° 0 mm 5 m/s 767 mmHg 92%
    03:00 +15°C° 0 mm 6 m/s 767 mmHg 94%
    04:00 +16°C° 0 mm 6 m/s 767 mmHg 92%
    05:00 +16°C° 0 mm 6 m/s 768 mmHg 90%
    06:00 +17°C° 0 mm 6 m/s 768 mmHg 88%
    07:00 +17°C° 0 mm 6 m/s 768 mmHg 86%
    08:00 +19°C° 0 mm 6 m/s 769 mmHg 84%
    09:00 +20°C° 0 mm 7 m/s 769 mmHg 82%
    10:00 +20°C° 0 mm 7 m/s 769 mmHg 82%
    11:00 +20°C° 0 mm 8 m/s 770 mmHg 81%
    12:00 +20°C° 0 mm 8 m/s 770 mmHg 81%
    13:00 +20°C° 0 mm 8 m/s 770 mmHg 81%
    14:00 +19°C° 0 mm 9 m/s 769 mmHg 82%
    15:00 +18°C° 0 mm 9 m/s 769 mmHg 82%
    16:00 +18°C° 0 mm 9 m/s 769 mmHg 83%
    17:00 +17°C° 0 mm 9 m/s 769 mmHg 83%
    18:00 +17°C° 0 mm 9 m/s 770 mmHg 84%
    19:00 +16°C° 0 mm 9 m/s 770 mmHg 84%
    20:00 +16°C° 0 mm 9 m/s 770 mmHg 84%
    21:00 +15°C° 0 mm 9 m/s 770 mmHg 84%
    22:00 +15°C° 0 mm 8 m/s 771 mmHg 85%
    23:00 +15°C° 0 mm 8 m/s 771 mmHg 85%

    Demain, 27 Juin, Jeudi

    Heure Température Précipitation Vent Pression Humidité
    00:00 +15°C° 0 mm 8 m/s 771 mmHg 86%
    01:00 +15°C° 0 mm 7 m/s 771 mmHg 87%
    02:00 +15°C° 0 mm 7 m/s 771 mmHg 87%
    03:00 +14°C° 0 mm 7 m/s 771 mmHg 88%
    04:00 +15°C° 0 mm 7 m/s 771 mmHg 86%
    05:00 +15°C° 0 mm 8 m/s 771 mmHg 83%
    06:00 +15°C° 0 mm 8 m/s 771 mmHg 81%
    07:00 +16°C° 0 mm 8 m/s 771 mmHg 75%
    08:00 +17°C° 0 mm 8 m/s 771 mmHg 69%
    09:00 +18°C° 0 mm 8 m/s 771 mmHg 64%
    10:00 +20°C° 0 mm 8 m/s 771 mmHg 63%
    11:00 +20°C° 0 mm 8 m/s 771 mmHg 62%
    12:00 +21°C° 0 mm 8 m/s 771 mmHg 61%
    13:00 +21°C° 0 mm 8 m/s 771 mmHg 64%
    14:00 +21°C° 0 mm 8 m/s 771 mmHg 67%
    15:00 +21°C° 0 mm 8 m/s 771 mmHg 70%
    16:00 +20°C° 0 mm 8 m/s 771 mmHg 72%
    17:00 +18°C° 0 mm 8 m/s 771 mmHg 74%
    18:00 +17°C° 0 mm 8 m/s 770 mmHg 76%
    19:00 +16°C° 0 mm 8 m/s 770 mmHg 78%
    20:00 +15°C° 0 mm 8 m/s 770 mmHg 80%
    21:00 +13°C° 0 mm 8 m/s 771 mmHg 82%
    22:00 +14°C° 0 mm 7 m/s 770 mmHg 84%
    23:00 +14°C° 0 mm 7 m/s 770 mmHg 86%

    Après-demain, 28 Juin, Vendredi

    Heure Température Précipitation Vent Pression Humidité
    00:00 +14°C° 0 mm 7 m/s 770 mmHg 88%
    01:00 +13°C° 0 mm 6 m/s 770 mmHg 88%
    02:00 +13°C° 0 mm 6 m/s 770 mmHg 88%
    03:00 +11°C° 0 mm 6 m/s 769 mmHg 89%
    04:00 +13°C° 0 mm 6 m/s 769 mmHg 87%
    05:00 +13°C° 0 mm 6 m/s 769 mmHg 85%
    06:00 +13°C° 0 mm 6 m/s 769 mmHg 83%
    07:00 +15°C° 0 mm 6 m/s 769 mmHg 78%
    08:00 +16°C° 0 mm 6 m/s 769 mmHg 73%
    09:00 +19°C° 0 mm 6 m/s 769 mmHg 69%
    10:00 +20°C° 0 mm 6 m/s 768 mmHg 65%
    11:00 +21°C° 0 mm 6 m/s 768 mmHg 62%
    12:00 +22°C° 0 mm 7 m/s 768 mmHg 59%
    13:00 +23°C° 0 mm 7 m/s 768 mmHg 59%
    14:00 +23°C° 0 mm 7 m/s 767 mmHg 59%
    15:00 +23°C° 0 mm 7 m/s 767 mmHg 59%
    16:00 +23°C° 0 mm 7 m/s 767 mmHg 62%
    17:00 +22°C° 0 mm 6 m/s 766 mmHg 65%
    18:00 +22°C° 0 mm 6 m/s 766 mmHg 68%
    19:00 +21°C° 0 mm 6 m/s 766 mmHg 71%
    20:00 +19°C° 0 mm 5 m/s 766 mmHg 75%
    21:00 +17°C° 0 mm 5 m/s 766 mmHg 78%
    22:00 +17°C° 0 mm 5 m/s 765 mmHg 78%
    23:00 +16°C° 0 mm 5 m/s 765 mmHg 78%

    29 Juin, Samedi

    Heure Température Précipitation Vent Pression Humidité
    00:00 +16°C° 0 mm 5 m/s 765 mmHg 77%
    01:00 +15°C° 0 mm 5 m/s 764 mmHg 79%
    02:00 +15°C° 0 mm 5 m/s 764 mmHg 81%
    03:00 +14°C° 0 mm 4 m/s 764 mmHg 83%
    04:00 +15°C° 0 mm 4 m/s 764 mmHg 81%
    05:00 +17°C° 0 mm 4 m/s 763 mmHg 79%
    06:00 +18°C° 0 mm 4 m/s 763 mmHg 77%
    07:00 +20°C° 0 mm 4 m/s 763 mmHg 71%
    08:00 +22°C° 0 mm 4 m/s 763 mmHg 65%
    09:00 +25°C° 0 mm 3 m/s 763 mmHg 59%
    10:00 +26°C° 0 mm 3 m/s 762 mmHg 55%
    11:00 +27°C° 0 mm 3 m/s 761 mmHg 51%
    12:00 +29°C° 0 mm 3 m/s 761 mmHg 47%
    13:00 +29°C° 0 mm 3 m/s 760 mmHg 47%
    14:00 +30°C° 0 mm 3 m/s 760 mmHg 47%
    15:00 +31°C° 0 mm 3 m/s 760 mmHg 47%
    16:00 +30°C° 0 mm 3 m/s 759 mmHg 53%
    17:00 +29°C° 0 mm 4 m/s 759 mmHg 59%
    18:00 +29°C° 0 mm 4 m/s 759 mmHg 64%
    19:00 +27°C° 0 mm 4 m/s 759 mmHg 70%
    20:00 +25°C° 0 mm 5 m/s 759 mmHg 76%
    21:00 +22°C° 0 mm 5 m/s 759 mmHg 82%
    22:00 +21°C° 0 mm 5 m/s 760 mmHg 86%
    23:00 +20°C° 0 mm 6 m/s 760 mmHg 90%

    30 Juin, Dimanche

    Heure Température Précipitation Vent Pression Humidité
    00:00 +19°C° 0 mm 6 m/s 760 mmHg 94%
    01:00 +19°C° 0 mm 5 m/s 760 mmHg 89%
    02:00 +17°C° 0 mm 5 m/s 760 mmHg 84%
    03:00 +17°C° 0 mm 4 m/s 760 mmHg 79%
    04:00 +17°C° 0 mm 4 m/s 761 mmHg 77%
    05:00 +17°C° 0 mm 4 m/s 761 mmHg 75%
    06:00 +17°C° 0 mm 4 m/s 762 mmHg 73%
    07:00 +17°C° 0 mm 5 m/s 762 mmHg 71%
    08:00 +19°C° 0 mm 5 m/s 762 mmHg 69%
    09:00 +20°C° 0 mm 5 m/s 763 mmHg 68%
    10:00 +21°C° 0 mm 6 m/s 763 mmHg 65%
    11:00 +22°C° 0 mm 6 m/s 763 mmHg 62%
    12:00 +22°C° 0 mm 7 m/s 763 mmHg 59%
    13:00 +22°C° 0 mm 7 m/s 763 mmHg 59%
    14:00 +22°C° 0 mm 7 m/s 763 mmHg 59%
    15:00 +22°C° 0 mm 8 m/s 763 mmHg 58%
    16:00 +21°C° 0 mm 7 m/s 762 mmHg 62%
    17:00 +21°C° 0 mm 7 m/s 762 mmHg 66%
    18:00 +20°C° 0 mm 7 m/s 762 mmHg 70%
    19:00 +17°C° 0 mm 7 m/s 762 mmHg 76%
    20:00 +16°C° 0 mm 6 m/s 763 mmHg 82%
    21:00 +14°C° 0 mm 6 m/s 763 mmHg 89%
    22:00 +14°C° 0 mm 6 m/s 763 mmHg 90%
    23:00 +14°C° 0 mm 6 m/s 763 mmHg 92%

    1 Juillet, Lundi

    Heure Température Précipitation Vent Pression Humidité
    00:00 +14°C° 0 mm 5 m/s 763 mmHg 93%
    01:00 +14°C° 0 mm 5 m/s 763 mmHg 92%
    02:00 +14°C° 0 mm 5 m/s 763 mmHg 92%
    03:00 +14°C° 0 mm 4 m/s 763 mmHg 91%
    04:00 +14°C° 0 mm 5 m/s 763 mmHg 87%
    05:00 +15°C° 0 mm 5 m/s 763 mmHg 83%
    06:00 +15°C° 0 mm 5 m/s 763 mmHg 80%
    07:00 +16°C° 0 mm 5 m/s 763 mmHg 76%
    08:00 +16°C° 0 mm 5 m/s 763 mmHg 73%
    09:00 +17°C° 0 mm 5 m/s 763 mmHg 69%
    10:00 +19°C° 0 mm 5 m/s 764 mmHg 67%
    11:00 +19°C° 0 mm 5 m/s 764 mmHg 65%
    12:00 +20°C° 0 mm 6 m/s 764 mmHg 63%
    13:00 +19°C° 0 mm 6 m/s 764 mmHg 63%
    14:00 +19°C° 0 mm 6 m/s 764 mmHg 63%
    15:00 +19°C° 0 mm 6 m/s 764 mmHg 63%
    16:00 +19°C° 0 mm 6 m/s 765 mmHg 64%
    17:00 +17°C° 0 mm 5 m/s 765 mmHg 66%
    18:00 +16°C° 0 mm 5 m/s 765 mmHg 67%
    19:00 +16°C° 0 mm 5 m/s 765 mmHg 70%
    20:00 +15°C° 0 mm 5 m/s 765 mmHg 74%
    21:00 +14°C° 0 mm 4 m/s 766 mmHg 77%
    22:00 +14°C° 0 mm 5 m/s 766 mmHg 80%
    23:00 +14°C° 0 mm 5 m/s 766 mmHg 83%
    Voir plus